User: anonymous   Login
Location: Oshawa
(43.9000°N, 78.8670°W)
Time: 20:55:11
(UTC-04:00)
Language:

S-56A Canister/Altair - Orbit

View from above orbital plane
View from above orbital plane
View from above satellite
View from above satellite

Ground track
Ground track

The orbit data is extracted from the following two-line orbital elements,

1 00082U 61004B   16209.79064432 -.00000031  00000-0  27239-4 0  9996
2 00082  38.8536  57.3792 1166108  68.6154 303.4811 12.25768339633458
Epoch (UTC): 27 July 2016 18:58:31
Eccentricity: 0.1166108
inclination: 38.8536°
perigee height: 641 km
apogee height: 2494 km
right ascension of ascending node: 57.3792°
argument of perigee: 68.6154°
revolutions per day: 12.25768339
mean anomaly at epoch: 303.4811°
orbit number at epoch: 63345

The dashed part of the orbit path shows where the satellite is in the earth's shadow,  

DLR